Regional Weather Roundup
Issued by NWS Sioux Falls, SD

Home | Current Version | Previous Version | Graphics & Text | Print | Product List | Glossary On
Versions: 1 2 3 4 5 6 7 8 9 10 11 12 13 14 15 16 17 18 19 20 21 22 23 24 25 26 27 28 29 30 31 32 33 34 35 36 37 38 39 40 41 42 43 44 45 46 47 48 49 50
000
ASUS43 KFSD 210602
RWRFSD

WEATHER ROUNDUP FOR SE SOUTH DAKOTA/SW MINNESOTA/NW IOWA
NATIONAL WEATHER SERVICE SIOUX FALLS SD
100 AM CDT TUE OCT 21 2014

NOTE: "FAIR" INDICATES FEW OR NO CLOUDS BELOW 12,000 FEET WITH NO
SIGNIFICANT WEATHER AND OR OBSTRUCTIONS TO VISIBILITY.


SDZ038>040-050-052>070-210700-
SOUTHEAST SOUTH DAKOTA

CITY           SKY/WX    TMP DP  RH WIND       PRES   REMARKS
CHAMBERLAIN    CLEAR     51  35  55 SE9       29.97F
6HR MIN TEMP:  51; 6HR MAX TEMP:  60;

HURON          CLEAR     46  35  65 SE7       30.01S
6HR MIN TEMP:  46; 6HR MAX TEMP:  61;

MADISON        FAIR      39  36  87 E7        30.05S
MITCHELL       CLEAR     47  37  68 S8        30.03R
6HR MIN TEMP:  45; 6HR MAX TEMP:  63;

SIOUX FALLS    CLEAR     40  35  83 CALM      30.05F
6HR MIN TEMP:  38; 6HR MAX TEMP:  61;

WINNER         FAIR      60  41  49 S12       29.95S
YANKTON        CLEAR     45  37  76 CALM      30.05R
$$

MNZ071-072-080-081-089-090-097-098-210700-
SOUTHWEST MINNESOTA

CITY           SKY/WX    TMP DP  RH WIND       PRES   REMARKS
FAIRMONT       CLEAR     43  28  56 CALM      30.07S
JACKSON        CLEAR     39  36  87 CALM      30.08S
LUVERNE        CLEAR     39  34  81 CALM      30.08S
MARSHALL       CLEAR     39  32  75 CALM      30.06S
6HR MIN TEMP:  37; 6HR MAX TEMP:  59;

MONTEVIDEO     PTCLDY    41  37  87 SE5       30.08S
PIPESTONE      CLEAR     46  36  66 CALM      30.07S
REDWOOD FALLS  CLEAR     47  37  68 E5        30.08R
TRACY          CLEAR     43  36  77 CALM      30.08S
WINDOM         CLEAR     39  36  87 CALM      30.08S
WORTHINGTON    CLEAR     39  34  81 CALM      30.09R
$$

IAZ001>003-012>014-020>022-031-032-NEZ013-014-SDZ071-210700-
NORTHWEST IOWA

CITY           SKY/WX    TMP DP  RH WIND       PRES   REMARKS
CHEROKEE       CLEAR     38  37  99 CALM      30.08S
DENISON        CLEAR     41  39  93 CALM      30.06S
ESTHERVILLE    CLEAR     38  34  85 NW5       30.08R
LE MARS        CLEAR     39  36  87 CALM      30.07S
ORANGE CITY    CLEAR     52  37  58 E5        30.06F
SHELDON        CLEAR     37  34  87 CALM      30.06S
SIOUX CITY     CLEAR     38  36  92 CALM      30.07R
6HR MIN TEMP:  38; 6HR MAX TEMP:  53;

SPENCER        CLEAR     36  33  89 W3        30.08R
6HR MIN TEMP:  35; 6HR MAX TEMP:  58;

STORM LAKE     CLEAR     48  37  66 NE5       30.08S
$$

ABBREVIATIONS USED IN REMARKS
   TC - TEMPERATURE IN CELSIUS
  WCI - WIND CHILL INDEX
   HX - HEAT INDEX
  VSB - VISIBILITY



USA.gov is the U.S. government's official web portal to all federal, state and local government web resources and services.